Погода в Кировограде

Погода в Кировограде : погода сейчас, прогноз погоды и архив. Всё, что Вы хотите узнать о погоде в Кировограде!

Хотите узнать прогноз погоды в Кировограде? Тогда Вам сюда: Погода в Кировограде

Поиск расширенной информации на нашем сайте:

Другие новости

Новости СМИ2

Главная страница сайта

Новости сайта

03.07.2017

Напоминаем, что на нашем специализированном сайте Метеоцентр.Азия вы можете получить высокодетализированные автоматические прогнозы погоды по пунктам России, СНГ и мира в авиационном формате (включающие направление и скорость ветра, видимость, явления погоды, количество и форму облачности, нижнюю и верхнюю границу облачности).

Рекомендуем: Банкетный зал на 100 человек monaco банкетный зал на 120 человек.

Погода в Кировограде - сегодня

Время (UTC), дата Ветер
(°,м/с) 
Видим.   Явления Облачность Т
(°С)
Тd
(°С)
f(%) Тe
(°С)
Pmin
(гПа)
dP
(гПа)
Po
(мм)
O2
(г/м3)
Тmin Tmax R s Состояние
почвы
18 13.12.17 150 (ЮВ) 1200 м  дымка  10/10 120 м 
[St]
+5.4 +4.9 97 +5  1012.9  -0.6  744  293    +8       
21 13.12.17 310 (СЗ) 0200 м  туман  ?/?  
+4.4 +4.4 100 +5  1012  -0.9  743  294           
00 14.12.17 010 (С) 0200 м  туман  ?/?  
+3 +3 100 +4  1010.8  -1.3  742  295           
03 14.12.17 тихо ()   0200 м  слаб. дождь{туман}  ?/?  
+2.8 +2.8 100 +3  1010  -0.8  742  295           
06 14.12.17 тихо ()   0200 м  туман{дождь, морось}  ?/?  
+2 +2 100 +2  1009.3  -0.7  741  296  +2       
09 14.12.17 250 (З) 2000 м  слаб. ливневой дождь  10/10 120 м кучево-дожд. 
[Cb calv]
+2.8 +2.5 98 +2  1008.9  -0.4  741  295           
12 14.12.17 270 (З) 10 км  {ливн. осадки, дождь}  10/10 210 м 
[St]
+2.8 +2.3 97 +2  1008.6  -0.3  741  295           
15 14.12.17 210 (ЮЗ) 8000 м  дымка  10/10 330 м 
[St]
+2.9 +2.1 94 +4  1009.4  0.8  741  295           
18 14.12.17 190 (Ю) 10 км    10/10 210 м 
[St]
+3.3 +2.6 95 +2  1009.9  0.5  742  295    +3.3  0.9     
21 14.12.17 210 (ЮЗ) 10 км    10/10 120 м 
[St]
+3.1 +2.3 94 +1  1010.1  0.2  742  295           
00 15.12.17 190 (Ю) 7000 м  в посл. час морось  10/10 180 м 
[St]
+3.2 +2.5 95 +2  1009.8  -0.3  742  295           
03 15.12.17 180 (Ю) 5000 м  дымка  10/10 150 м 
[St]
+3.9 +3.2 95 +2  1009.4  -0.3  741  294          затоплена
водой 
06 15.12.17 190 (Ю) 4200 м  дымка  10/10 100 м 
[St]
+3.3 +2.8 97 +1  1010.6  1.1  742  295  +3    0.0     
09 15.12.17 180 (Ю) 9000 м  дымка  10/10 210 м 
[St]
+3.9 +3.2 95 +2  1011.3  0.8  743  295           
12 15.12.17 190 (Ю) 7000 м  дымка  10/10 210 м 
[St]
+5.9 +4.3 89 +4  1010.9  -0.3  743  292           
15 15.12.17 160 (Ю) 10 км    10/10 400 м 
[St]
+6.6 +4.3 85 +4  1010.6  -0.2  742  291           
18 15.12.17 160 (Ю) 6000 м  дымка  4/4 180 м 
[St]
+5.4 +4.5 94 +3  1010.6  -0.1  742  293    +6.9       
21 15.12.17 170 (Ю) 2800 м  в посл. час туман  10/10 120 м 
[St]
+5.4 +5.2 99 +3  1010.3  -0.3  742  292           
00 16.12.17 160 (Ю) 0200 м  слаб. морось{туман}  ?/?  
+6.8 +6.8 100 +4  1009.5  -0.7  742  290      0.0     
03 16.12.17 150 (ЮВ) 1000 м  дымка{морось, туман}  10/10 100 м 
[St]
+7.4 +7.2 99 +5  1007.7  -1.7  740  289           
06 16.12.17 160 (Ю) 9000 м  дымка{морось, туман}  10/10 300 м 
[St]
+9 +8.6 97 +6  1005.1  -2.4  738  287  +5    0.0     
09 16.12.17 170 (Ю) 10 км    10/10 400 м 
[St]
+10.5 +8.5 87 +8  1004.1  -0.9  738  285           
12 16.12.17 180 (Ю) 10 км    10/10 570 м 
[Sc]
+11.7 +9.1 84 +10  1003.1  -0.9  737  283           
15 16.12.17 170 (Ю) 10  10 км    10/10 360 м 
[St]
+10.8 +8.8 87 +9  1003.5  0.4  737  284           
18 16.12.17 180 (Ю) 10 км    10/10 300 м 
[St]
+10.3 +8.7 90 +9  1004.8  1.2  738  285    +11.9       
Время (UTC), дата Ветер
(°,м/с) 
Видим.   Явления Облачность Т
(°С)
Тd
(°С)
f(%) Тe
(°С)
Pmin
(гПа)
dP
(гПа)
Po
(мм)
O2
(г/м3)
Тmin Tmax R s Состояние
почвы

Для получения пояснительной информации подведите курсор к названию столбца.

ПОГОДА в Кировограде - архив

Всё, что Вы хотите узнать о погоде в Кировограде - удобно и подробно!

Выберите нужную дату (начиная с 1 января 2015* года) и нажмите кнопку "Найти".
Будут отображены архивные сводки погоды по пункту Кировоград, начиная с указанной даты.


Отображать данные в формате CSV (для использования в таблицах Excel)


Внимание! Наш архив погоды предназначен исключительно для личного некоммерческого использования в познавательных целях. Если Вам необходимы официальные справки о состоянии погоды (для производственных, юридических, коммерческих и т.п. целей), обращайтесь в органы Росгидромета.

*Примечание: данная дата относится к архиву по метеостанциям СССР (Россия, СНГ, Балтия).
Архив по метеостанциям Зарубежной Европы и Азии (кроме Китая) хранится 10 дней, по другим регионам земного шара (Китай, Африка, Америка, Австралия, Океания) - 1 день.

Кировоград - район местоположения метеостанции


Название, широта, долгота, высота метеостанции:
Кировоград 48.5°ш. 32.2°д. 171 м над ур. моря [Украина]

Дополнительная информация

В oтличие oт бoльшинства пoгoдных сайтoв мы публикуем пoдрoбную метеoинфoрмацию в детальнoм прoфессиoнальнoм фoрмате.

Характеристики температуры и влажнoсти вoздуха измеряются на высoте 2 м в тени вдали oт зданий и деревьев.
Скoрoсть ветра измеряется на высoте 10 м (на урoвне рoста челoвека скoрoсть ветра ниже в 1.5-2 раза). Если метеoстанция нахoдится в гoрoде или в лесу, тo скoрoсть ветра занижена на 2-4 м/с пo сравнению с oткрытым местoм. Скoрoсть ветра над акватoриями крупных рек и oзёр, а также на вершинах хoлмoв на 2-5 м/с выше, чем в oбычных услoвиях.
Атмoсфернoе давление в разных тoчках местнoсти мoжет значительнo oтличаться oт давления на метеoстанции, в зависимoсти oт услoвий рельефа (при пoдъёме на 10 м давление пoнижается примернo на 1 мм рт.ст.).